Theta_e
332 340 347 349 349 349 348 348 348 348 346 344 342 340 339 339 340 339 340 342 342 342 347 346 345 343 342 340 340 341 341 341 341 341 342 342 342 339 338 338 339 335 340
337 342 345 348 349 349 349 348 348 348 345 343 342 341 339 339 339 339 339 340 341 340 342 344 343 345 343 341 340 340 339 338 338 339 341 342 341 339 339 339 341 336 337
338 342 344 346 348 349 348 347 347 347 345 343 343 342 341 341 340 340 340 340 341 341 341 341 341 341 342 342 340 340 340 338 337 336 336 333 333 338 339 339 339 339 339
337 341 343 344 346 348 348 347 347 347 346 344 344 343 343 342 342 342 341 341 342 343 343 344 344 342 342 342 341 338 337 336 335 336 332 334 334 339 339 338 339 340 339
336 340 343 343 346 348 348 347 347 347 347 346 345 344 344 344 344 344 344 343 343 344 345 345 345 342 340 337 337 336 334 332 332 330 327 330 334 338 338 335 336 336 338
335 338 341 344 347 348 348 347 347 347 347 347 346 347 345 346 347 347 345 345 345 345 345 342 340 339 337 336 335 330 326 324 324 314 316 322 321 330 329 329 331 333 334
334 337 339 342 346 347 347 347 347 346 347 347 347 347 347 346 345 345 343 342 341 341 340 338 335 334 333 330 326 322 317 315 311 305 309 311 314 323 322 322 322 323 325
333 335 340 337 340 344 346 346 345 345 345 346 346 346 345 342 341 340 340 340 338 337 336 333 331 330 326 323 320 315 311 310 307 302 307 309 319 320 320 320 321 322 323
332 335 338 339 339 336 340 341 342 342 343 344 345 344 341 339 339 338 337 336 335 334 332 329 327 323 321 318 315 311 309 309 300 302 309 308 319 318 319 320 321 321 322
332 334 335 336 339 340 341 334 336 338 340 341 339 336 332 332 332 332 330 332 331 330 328 325 322 319 317 316 312 309 308 310 301 303 307 309 316 318 319 320 320 321 322
329 333 333 334 336 338 341 336 332 333 334 334 332 327 325 324 324 322 321 327 330 327 324 321 318 316 314 312 310 309 310 302 300 304 306 315 315 317 319 319 320 321 322
325 329 333 333 335 336 339 337 336 336 336 334 329 325 323 319 316 316 315 322 325 323 322 319 316 313 312 302 302 309 301 301 300 303 305 313 314 317 319 319 320 321 321
324 330 332 333 334 334 336 333 333 334 331 327 324 320 319 314 312 309 310 311 311 314 311 311 307 303 300 300 301 300 300 299 299 302 308 312 314 317 320 320 320 319 319
322 329 330 334 334 333 332 331 330 328 326 323 321 319 316 309 306 307 306 305 306 306 305 303 300 299 300 301 300 299 299 298 298 301 306 312 314 317 319 318 317 317 316
321 326 329 332 333 332 328 329 326 327 324 322 319 318 314 307 306 306 305 304 304 304 302 300 300 300 300 300 300 299 299 299 299 300 300 310 313 315 316 315 316 315 314
319 324 328 330 331 330 327 328 326 326 324 321 318 317 311 307 306 305 303 303 302 302 301 300 300 299 299 300 299 299 299 299 299 299 299 304 312 312 311 312 313 312 311
316 321 326 328 329 329 328 327 327 326 324 319 317 315 310 306 305 304 303 302 302 302 301 300 300 299 299 299 299 299 299 298 298 298 299 301 304 309 306 309 310 307 307
312 315 326 328 327 327 328 326 326 322 319 316 313 312 308 306 305 302 302 301 301 301 301 299 298 298 298 297 296 297 298 299 297 297 299 300 299 301 305 308 305 303 304
311 313 320 326 326 326 327 327 322 315 315 310 308 308 306 306 305 303 302 301 301 300 300 300 298 297 296 295 296 296 296 296 296 299 297 298 298 298 299 306 305 303 302
306 310 317 325 326 326 326 321 314 310 310 307 306 306 305 305 305 303 302 302 302 300 300 299 297 296 296 296 295 294 295 295 296 295 296 298 297 297 298 298 297 297 303
306 307 313 319 323 324 318 310 307 306 304 304 304 305 305 305 304 303 303 302 302 300 300 299 297 295 294 294 294 293 293 294 295 295 295 295 296 296 295 295 295 294 295
304 305 309 315 318 320 316 314 310 307 304 304 304 304 305 304 304 304 303 302 301 299 299 298 296 294 295 294 292 291 289 291 294 295 294 295 294 295 295 295 295 294 294
299 300 307 312 314 317 316 312 304 301 300 299 301 303 304 304 304 303 303 301 301 301 299 298 297 296 292 292 292 293 289 289 291 293 293 294 293 293 293 293 294 294 294
297 300 305 310 311 314 312 307 304 302 300 301 302 303 303 304 303 303 303 302 301 301 299 299 298 296 293 291 292 294 292 292 288 288 291 292 292 293 292 292 292 293 293
292 298 303 307 309 310 308 306 304 302 303 302 302 302 302 302 303 302 302 301 300 299 299 298 297 296 294 292 291 291 290 290 290 289 287 289 291 292 292 291 291 291 292
291 294 297 302 306 307 306 304 303 301 301 300 300 300 301 301 301 301 301 300 299 299 298 297 297 295 294 293 293 292 290 288 288 288 287 287 288 289 290 290 290 290 290
Wind_Speed
8 17 22 22 22 21 19 18 16 15 15 14 13 13 13 13 12 12 12 12 12 11 12 13 12 11 11 11 10 10 11 10 10 9 9 9 10 9 10 10 8 5 9
14 20 24 22 22 21 19 18 17 15 16 15 15 14 13 13 12 12 11 11 11 11 11 12 11 11 11 10 10 10 10 8 7 6 6 5 7 9 9 8 8 7 9
15 17 20 23 23 21 20 19 18 17 17 16 15 14 14 13 12 12 11 10 10 11 11 12 12 11 11 9 9 9 8 6 4 3 3 2 3 7 8 7 6 6 6
16 16 18 21 22 22 21 20 18 17 17 17 16 15 14 14 13 12 11 10 9 9 11 12 12 13 12 11 9 7 5 3 2 3 1 3 5 8 7 6 7 8 7
15 16 16 21 23 22 20 20 19 18 17 17 16 16 15 15 14 13 11 11 10 9 10 12 12 13 8 7 7 6 4 2 3 5 5 4 4 8 6 5 7 8 7
14 16 15 20 21 22 23 21 20 18 17 17 17 16 16 15 15 16 11 10 11 12 14 11 11 10 9 9 7 5 3 2 4 4 5 7 6 7 7 6 6 6 7
14 14 16 20 21 21 22 21 21 20 18 18 17 16 14 16 14 15 14 11 10 10 11 10 10 10 10 8 6 4 2 3 2 2 5 6 5 7 6 5 4 5 5
16 14 16 19 17 17 20 21 22 21 19 17 15 17 17 16 14 11 12 12 12 12 12 12 11 11 9 8 6 3 1 2 3 2 5 5 7 6 4 4 3 4 5
12 14 14 16 16 14 15 17 17 20 18 16 17 17 16 15 13 12 12 13 13 13 13 12 11 10 9 7 6 4 2 1 2 3 6 3 6 4 4 4 4 4 5
12 14 14 14 14 12 12 15 15 14 14 14 16 13 14 14 11 11 10 11 13 14 12 11 10 8 7 7 5 4 3 0 2 6 4 3 6 4 3 4 4 5 6
8 12 14 14 14 14 14 12 14 13 14 17 14 13 14 7 7 8 7 10 12 13 13 11 10 8 6 5 5 4 1 1 3 4 3 7 5 4 4 4 5 6 7
10 12 14 14 14 12 11 11 11 10 11 11 11 10 9 8 6 7 7 10 12 11 13 12 10 9 6 2 2 2 1 2 4 4 2 7 5 4 5 5 6 8 8
11 10 12 13 13 14 11 8 6 7 7 7 11 9 10 6 5 4 3 3 4 6 4 6 6 4 4 3 3 3 3 2 3 3 5 7 5 5 7 8 6 6 8
11 16 12 14 14 13 8 8 8 7 7 7 8 10 9 5 5 6 4 5 4 4 5 5 3 5 5 6 6 4 3 2 3 3 3 7 5 6 7 8 6 6 7
13 13 15 14 14 13 13 9 8 9 8 9 9 9 9 7 7 7 6 5 4 4 4 4 4 4 5 4 4 4 4 4 5 3 2 7 6 6 7 7 6 6 6
16 15 18 18 17 16 13 14 11 9 9 9 9 10 10 9 8 8 7 6 6 5 5 5 5 4 4 4 5 4 4 3 4 5 4 4 8 6 5 6 6 5 5
16 17 19 20 17 17 18 15 12 11 11 10 9 12 12 10 10 9 7 6 6 6 7 5 4 3 3 3 4 4 4 4 4 5 4 4 5 8 5 7 6 3 4
14 17 19 18 19 19 17 14 12 11 11 10 10 10 13 12 10 7 6 6 5 5 5 5 5 3 3 4 3 4 4 3 3 4 5 4 4 3 5 9 6 3 2
18 15 18 21 22 22 19 14 13 13 11 10 10 10 13 12 12 10 8 6 7 5 4 5 3 4 3 3 4 4 3 4 4 3 5 6 6 5 3 7 6 3 2
18 18 20 19 22 21 15 11 9 10 10 10 10 11 15 12 14 11 8 8 8 7 5 4 5 2 3 4 3 3 2 3 3 4 5 4 4 4 5 5 3 1 5
15 17 18 20 20 16 14 13 12 13 10 10 10 15 16 13 14 13 9 10 10 10 9 7 4 5 2 3 4 2 2 2 4 4 4 3 4 4 4 5 3 2 2
15 16 16 20 21 19 14 13 10 12 9 9 8 10 14 14 15 14 14 11 11 8 10 9 6 4 3 5 4 2 3 2 2 3 4 4 5 4 3 4 3 4 3
12 11 17 20 21 21 18 11 5 5 4 5 9 9 12 16 15 16 15 13 12 11 10 11 9 7 5 3 4 3 3 5 3 1 4 3 5 3 3 4 3 3 4
13 12 16 18 21 20 19 16 18 17 14 11 13 12 13 17 17 15 15 15 14 11 13 12 10 7 6 5 2 2 2 2 4 3 1 2 4 4 4 4 2 3 3
7 10 16 18 20 19 20 20 17 16 12 9 11 14 14 12 14 13 13 13 13 9 9 12 10 8 4 5 4 4 1 1 1 4 3 1 1 2 4 4 3 3 2
11 8 5 12 18 20 20 20 21 20 16 11 13 12 11 11 11 14 15 14 12 11 11 10 9 9 7 5 4 5 5 5 4 4 2 2 3 2 3 2 2 3 2
Wind_Direction
172 165 169 168 165 164 163 163 162 160 157 153 152 149 148 146 144 141 140 139 137 133 119 126 122 117 107 100 101 99 95 93 92 93 97 103 102 88 69 57 60 55 53
149 165 169 170 168 167 166 165 163 162 160 159 158 157 156 155 152 149 149 144 142 138 131 123 117 114 110 107 102 103 102 100 98 103 106 118 122 106 85 65 51 53 51
148 165 167 172 171 170 169 168 166 164 165 164 164 163 163 162 161 159 155 153 153 147 140 132 123 115 111 114 111 106 97 94 95 112 130 171 137 108 92 72 49 44 42
151 165 171 173 175 173 171 169 169 168 169 170 171 171 172 171 171 171 167 168 165 161 153 145 141 134 123 105 114 115 95 72 18 331 330 223 177 121 89 63 32 31 32
153 166 174 174 175 174 174 172 171 172 175 176 177 177 181 184 187 184 176 176 176 185 193 151 136 114 114 127 127 127 106 52 341 341 344 57 90 74 59 39 33 28 29
153 164 168 177 179 176 174 174 173 175 178 181 181 186 183 193 198 188 173 167 175 147 122 124 123 122 126 130 128 114 77 355 343 359 69 80 72 69 60 50 32 21 23
157 166 164 177 181 180 178 177 176 178 183 184 183 191 189 160 142 143 147 141 135 129 133 139 134 133 131 129 123 108 68 337 346 32 110 91 88 70 58 54 42 26 20
157 160 168 176 182 183 180 183 180 180 184 185 187 173 158 144 137 151 152 157 153 150 148 145 143 140 138 139 136 118 32 358 39 111 95 77 76 76 82 71 56 51 46
143 155 168 178 182 182 181 184 186 177 182 182 178 165 161 131 141 163 163 162 161 159 153 152 148 150 150 149 148 152 230 47 72 96 100 76 74 79 88 79 63 58 58
153 160 165 175 179 183 187 179 178 177 178 172 166 159 138 135 156 161 162 167 165 160 158 155 153 152 157 160 166 183 218 130 118 108 103 116 101 100 88 83 75 69 64
166 166 167 172 178 183 187 185 176 173 167 162 156 152 130 139 155 154 155 169 167 163 161 158 156 156 158 179 197 213 182 196 122 108 117 112 108 118 114 105 94 81 76
184 174 174 174 178 175 185 179 183 174 172 166 157 160 138 146 149 157 164 172 155 159 163 163 163 161 162 201 265 251 205 214 104 121 114 115 124 133 115 98 94 93 82
195 175 176 173 173 172 182 172 171 168 163 162 159 161 144 147 150 142 145 136 137 140 153 158 162 155 179 201 229 223 203 128 109 137 141 123 134 141 127 118 106 93 81
176 187 173 169 170 176 165 179 172 165 167 167 169 166 145 149 156 156 151 155 149 148 161 166 177 178 194 175 168 164 157 129 133 127 139 132 144 147 131 120 115 97 87
195 183 179 167 171 172 166 176 180 182 178 168 169 173 150 156 167 162 163 159 163 161 173 190 185 180 172 166 168 170 179 165 139 137 136 146 154 148 139 122 116 104 79
202 184 183 180 176 172 175 180 183 184 177 170 172 176 156 162 168 168 168 176 174 175 179 180 182 177 180 165 174 181 187 172 145 149 150 162 152 143 134 127 120 98 65
204 192 184 186 180 178 183 185 185 185 179 175 172 173 166 165 174 167 169 175 183 178 171 166 176 157 161 168 172 178 169 173 173 150 164 155 163 148 154 138 123 100 46
199 193 186 184 186 186 188 185 187 179 177 175 171 171 171 169 169 163 171 177 170 162 161 152 150 155 172 172 169 190 169 169 174 171 159 162 172 163 168 149 141 99 54
210 193 185 186 186 188 190 189 184 175 176 177 168 169 173 171 171 171 174 167 159 152 160 160 151 149 170 182 174 159 175 166 182 161 181 161 177 162 175 174 164 156 224
212 199 188 184 186 186 184 180 171 175 179 174 172 175 175 179 175 169 164 167 160 155 163 169 152 144 154 170 142 133 158 183 178 159 202 168 169 156 165 170 169 200 212
211 201 188 185 182 176 178 175 179 181 175 177 181 180 181 178 174 173 172 169 169 170 171 171 147 145 124 164 112 53 3 249 202 169 187 185 169 184 167 158 179 169 240
214 200 186 187 181 184 180 183 181 176 184 182 183 184 180 179 178 176 173 176 175 159 165 170 158 153 140 181 151 120 164 312 286 206 184 169 178 173 201 205 195 201 214
209 193 191 185 184 186 182 169 137 123 114 152 181 179 186 185 183 182 175 172 174 171 179 180 172 160 146 200 223 177 122 208 144 127 222 184 164 178 214 226 209 223 205
211 195 195 187 184 184 173 173 176 181 183 193 185 181 186 188 186 184 176 175 181 181 180 182 178 171 139 160 135 217 310 144 150 155 289 224 197 197 212 233 200 234 200
322 221 198 186 184 180 177 179 182 186 192 183 185 184 183 184 185 179 181 180 179 193 183 174 174 168 170 149 158 145 174 30 65 120 176 193 336 235 238 204 185 218 247
4 359 283 177 183 179 177 182 186 186 183 179 180 181 185 181 179 183 179 179 180 182 177 175 174 177 177 158 153 159 170 161 197 129 137 142 176 275 253 197 222 212 184